Location: G?julap?du
(16.5372°N, 81.0979°E)
Time: 09:13:21
(UTC+00:00)

Cosmos 2218 Rocket - Pass Details

Date: 14 April 2026
Orbit: 955 x 1005 km, 82.9° (Epoch: 12 May)

Event Time Altitude Azimuth Distance (km) Brightness Sun altitude
Exits shadow 14:22:51 40° 82° (E) 1,376 4.3 -22.2°
Drops below altitude 10° 14:28:09 10° 23° (NNE) 2,681 6.2 -23.4°
Sets 14:30:46 0° 17° (NNE) 3,626 7.0 -24.0°
